TimeEDT,TemperatureF,Dew PointF,Humidity,Sea Level PressureIn,VisibilityMPH,Wind Direction,Wind SpeedMPH,Gust SpeedMPH,PrecipitationIn,Events,Conditions,WindDirDegrees,DateUTC
12:16 AM,73.4,64.4,73,29.59,10.0,WNW,17.3,26.5,N/A,,Scattered Clouds,300,2013-06-14 04:16:00
12:37 AM,73.4,62.6,69,29.59,10.0,WNW,18.4,23.0,N/A,,Scattered Clouds,290,2013-06-14 04:37:00
12:56 AM,73.4,64.4,73,29.60,10.0,WNW,15.0,20.7,N/A,,Scattered Clouds,290,2013-06-14 04:56:00
1:19 AM,73.4,62.6,69,29.60,10.0,WNW,12.7,20.7,N/A,,Scattered Clouds,290,2013-06-14 05:19:00
1:36 AM,71.6,62.6,73,29.60,10.0,WNW,15.0,20.7,N/A,,Scattered Clouds,290,2013-06-14 05:36:00
1:56 AM,71.6,60.8,69,29.61,10.0,WNW,16.1,24.2,N/A,,Clear,290,2013-06-14 05:56:00
2:16 AM,71.6,60.8,69,29.61,10.0,WNW,15.0,18.4,N/A,,Clear,290,2013-06-14 06:16:00
2:37 AM,71.6,60.8,69,29.61,10.0,WNW,13.8,24.2,N/A,,Clear,290,2013-06-14 06:37:00
2:56 AM,71.6,60.8,69,29.61,10.0,WNW,15.0,19.6,N/A,,Scattered Clouds,300,2013-06-14 06:56:00
3:16 AM,71.6,60.8,69,29.61,10.0,WNW,12.7,23.0,N/A,,Scattered Clouds,290,2013-06-14 07:16:00
3:38 AM,71.6,60.8,69,29.61,10.0,WNW,16.1,25.3,N/A,,Mostly Cloudy,290,2013-06-14 07:38:00
3:57 AM,71.6,60.8,69,29.62,10.0,WNW,10.4,20.7,N/A,,Overcast,290,2013-06-14 07:57:00
4:16 AM,71.6,60.8,69,29.63,10.0,WNW,13.8,21.9,N/A,,Overcast,290,2013-06-14 08:16:00
4:36 AM,71.6,60.8,69,29.63,10.0,WNW,11.5,23.0,N/A,,Overcast,300,2013-06-14 08:36:00
4:56 AM,71.6,57.2,60,29.64,10.0,NW,16.1,24.2,N/A,,Overcast,310,2013-06-14 08:56:00
5:16 AM,69.8,60.8,73,29.65,10.0,NNW,12.7,25.3,N/A,,Overcast,340,2013-06-14 09:16:00
5:36 AM,69.8,60.8,73,29.66,7.0,NW,15.0,27.6,N/A,Rain,Rain,320,2013-06-14 09:36:00
5:57 AM,-9999,-9999,N/A,-9999,10.0,North,10.4,-,N/A,Rain,Light Rain,350,2013-06-14 09:57:00
6:16 AM,64.4,60.8,88,29.68,10.0,North,10.4,23.0,0.04,Rain,Light Rain,350,2013-06-14 10:16:00
6:36 AM,64.4,60.8,88,29.69,10.0,NNW,8.1,-,0.05,Rain,Light Rain,330,2013-06-14 10:36:00
6:56 AM,66.2,60.8,83,29.69,10.0,NNW,5.8,-,N/A,,Overcast,340,2013-06-14 10:56:00
7:16 AM,66.2,59.0,78,29.71,10.0,NNW,9.2,16.1,N/A,,Overcast,340,2013-06-14 11:16:00
7:36 AM,66.2,57.2,73,29.71,10.0,North,17.3,25.3,N/A,,Overcast,350,2013-06-14 11:36:00
7:56 AM,64.4,57.2,77,29.73,10.0,North,12.7,18.4,N/A,,Overcast,360,2013-06-14 11:56:00
8:17 AM,64.4,57.2,77,29.75,10.0,NNE,9.2,21.9,N/A,Rain,Light Rain,20,2013-06-14 12:17:00
8:36 AM,64.4,57.2,77,29.75,10.0,North,11.5,-,N/A,,Overcast,10,2013-06-14 12:36:00
8:56 AM,64.4,57.2,77,29.76,10.0,North,9.2,18.4,N/A,,Mostly Cloudy,10,2013-06-14 12:56:00
9:16 AM,64.4,55.4,73,29.77,10.0,North,13.8,19.6,N/A,,Mostly Cloudy,360,2013-06-14 13:16:00
9:36 AM,66.2,55.4,68,29.78,10.0,North,6.9,18.4,N/A,,Mostly Cloudy,350,2013-06-14 13:36:00
9:56 AM,66.2,55.4,68,29.79,10.0,North,10.4,21.9,N/A,,Overcast,350,2013-06-14 13:56:00
10:16 AM,66.2,57.2,73,29.80,10.0,North,9.2,18.4,N/A,,Mostly Cloudy,350,2013-06-14 14:16:00
10:37 AM,66.2,55.4,68,29.80,10.0,North,15.0,21.9,N/A,,Mostly Cloudy,360,2013-06-14 14:37:00
10:56 AM,69.8,57.2,64,29.80,10.0,North,10.4,23.0,N/A,,Mostly Cloudy,360,2013-06-14 14:56:00
11:16 AM,69.8,57.2,64,29.81,10.0,North,13.8,25.3,N/A,,Mostly Cloudy,350,2013-06-14 15:16:00
11:36 AM,69.8,55.4,60,29.83,10.0,North,15.0,20.7,N/A,,Mostly Cloudy,350,2013-06-14 15:36:00
11:56 AM,69.8,57.2,64,29.83,10.0,North,12.7,24.2,N/A,,Overcast,360,2013-06-14 15:56:00
12:16 PM,69.8,57.2,64,29.84,10.0,NNW,11.5,19.6,N/A,,Mostly Cloudy,330,2013-06-14 16:16:00
12:36 PM,69.8,57.2,64,29.85,10.0,NNW,10.4,19.6,N/A,,Overcast,340,2013-06-14 16:36:00
12:56 PM,69.8,57.2,64,29.86,10.0,North,10.4,17.3,N/A,,Overcast,10,2013-06-14 16:56:00
1:16 PM,68.0,55.4,64,29.87,10.0,North,8.1,16.1,N/A,,Overcast,360,2013-06-14 17:16:00
1:38 PM,69.8,55.4,60,29.87,10.0,North,10.4,16.1,N/A,,Overcast,350,2013-06-14 17:38:00
1:56 PM,69.8,55.4,60,29.88,10.0,North,12.7,17.3,N/A,,Overcast,360,2013-06-14 17:56:00
2:16 PM,71.6,55.4,57,29.88,10.0,North,9.2,17.3,N/A,,Scattered Clouds,10,2013-06-14 18:16:00
2:36 PM,71.6,55.4,57,29.89,10.0,North,15.0,-,N/A,,Scattered Clouds,360,2013-06-14 18:36:00
2:56 PM,71.6,55.4,57,29.88,10.0,North,10.4,17.3,N/A,,Scattered Clouds,360,2013-06-14 18:56:00
3:19 PM,73.4,53.6,50,29.89,10.0,North,10.4,20.7,N/A,,Scattered Clouds,10,2013-06-14 19:19:00
3:36 PM,73.4,53.6,50,29.90,10.0,North,12.7,20.7,N/A,,Scattered Clouds,10,2013-06-14 19:36:00
3:56 PM,73.4,51.8,47,29.90,10.0,NNW,11.5,18.4,N/A,,Scattered Clouds,340,2013-06-14 19:56:00
4:16 PM,71.6,53.6,53,29.90,10.0,North,10.4,16.1,N/A,,Scattered Clouds,10,2013-06-14 20:16:00
4:36 PM,73.4,53.6,50,29.90,10.0,North,8.1,16.1,N/A,,Scattered Clouds,10,2013-06-14 20:36:00
4:56 PM,73.4,53.6,50,29.91,10.0,NNW,9.2,20.7,N/A,,Mostly Cloudy,340,2013-06-14 20:56:00
5:16 PM,73.4,53.6,50,29.91,10.0,NNW,5.8,-,N/A,,Scattered Clouds,340,2013-06-14 21:16:00
5:36 PM,73.4,55.4,53,29.91,10.0,NW,6.9,-,N/A,,Clear,320,2013-06-14 21:36:00
5:56 PM,73.4,55.4,53,29.90,10.0,NW,8.1,-,N/A,,Clear,320,2013-06-14 21:56:00
6:16 PM,73.4,55.4,53,29.90,10.0,WNW,8.1,-,N/A,,Clear,300,2013-06-14 22:16:00
6:36 PM,73.4,55.4,53,29.90,10.0,WNW,5.8,-,N/A,,Clear,290,2013-06-14 22:36:00
6:56 PM,73.4,55.4,53,29.91,10.0,NW,4.6,-,N/A,,Clear,310,2013-06-14 22:56:00
7:16 PM,73.4,55.4,53,29.91,10.0,West,5.8,-,N/A,,Clear,270,2013-06-14 23:16:00
7:36 PM,73.4,57.2,57,29.92,10.0,West,3.5,-,N/A,,Clear,260,2013-06-14 23:36:00
7:56 PM,71.6,59.0,64,29.92,10.0,WSW,3.5,-,N/A,,Clear,240,2013-06-14 23:56:00
8:16 PM,69.8,60.8,73,29.92,10.0,WSW,3.5,-,N/A,,Clear,240,2013-06-15 00:16:00
8:36 PM,66.2,60.8,83,29.92,10.0,Calm,Calm,-,N/A,,Clear,0,2013-06-15 00:36:00
8:56 PM,66.2,59.0,78,29.93,10.0,SW,4.6,-,N/A,,Clear,220,2013-06-15 00:56:00
9:16 PM,64.4,59.0,83,29.93,10.0,SW,3.5,-,N/A,,Clear,220,2013-06-15 01:16:00
9:36 PM,64.4,59.0,83,29.94,10.0,SSW,4.6,-,N/A,,Clear,210,2013-06-15 01:36:00
9:57 PM,64.4,60.8,88,29.95,10.0,SW,5.8,-,N/A,,Clear,220,2013-06-15 01:57:00
10:16 PM,64.4,57.2,77,29.95,10.0,SW,5.8,-,N/A,,Clear,220,2013-06-15 02:16:00
10:36 PM,66.2,57.2,73,29.96,10.0,SW,5.8,-,N/A,,Clear,220,2013-06-15 02:36:00
10:56 PM,64.4,57.2,77,29.96,10.0,SW,4.6,-,N/A,,Clear,230,2013-06-15 02:56:00
11:16 PM,64.4,59.0,83,29.96,10.0,SW,4.6,-,N/A,,Clear,230,2013-06-15 03:16:00
11:36 PM,64.4,59.0,83,29.96,7.0,SW,3.5,-,N/A,,Clear,230,2013-06-15 03:36:00
11:56 PM,64.4,59.0,83,29.96,10.0,WSW,4.6,-,N/A,,Clear,240,2013-06-15 03:56:00